Home > Weather > Sivaganga > Past weeks

Flag for India Past Weather in Sivaganga, Tamil Nadu, India — Yesterday and Last 2 Weeks

Now
82 °F

Scattered clouds.


Feels Like: 86 °F
Forecast: 76 / 96 °F
Wind: 9 mph from West

Location: Tiruchchirapalli

Current Time: Aug 28, 2016 at 8:05:13 AM

Latest Report: Aug 28, 2016 at 7:30 AM


Visibility: 3 mi

Pressure: 29.74 "Hg

Humidity: 66%

Dew Point: 70 °F

Location of SivagangaLocation

Past Weather in Sivaganga — Graph

°F

Sivaganga Temperature Yesterday

Maximum temperature yesterday: 93 °F (at 2:00 PM)
Minimum temperature yesterday: 77 °F (at 12:00 AM)
Average temperature yesterday: 83 °F

High & Low Weather Summary for the Past Weeks

 TemperatureHumidityPressure
High102 °F (Aug 22, 11:30 PM)94% (Aug 27, 2:30 AM)29.80 "Hg (Aug 27, 2:30 AM)
Low77 °F (Aug 26, 10:30 PM)33% (Aug 17, 4:30 PM)29.56 "Hg (Aug 20, 4:30 PM)
Average88 °F56%29.70 "Hg
* Reported Aug 13 6:30 AM — Aug 28 6:30 AM, Sivaganga, Weather by CustomWeather, © 2016

Note: Actual official high and low records may vary slightly from our data, if they occured in-between our weather recording intervals... More about our weather records

Advertising

Sivaganga Weather History for the Previous 24 Hours

Scroll right to see more
 ConditionsComfort  
Time TempWeatherWind HumidityBarometerVisibility
6:30 AM
Sun, Aug 28
79 °FFog.10 mph79%29.71 "Hg3 mi
6:00 AM79 °FFog.12 mph79%29.71 "Hg3 mi
5:30 AM79 °FFog.13 mph79%29.71 "Hg3 mi
5:00 AM81 °FFog.10 mph79%29.71 "Hg3 mi
4:30 AM81 °FFog.12 mph79%29.71 "Hg3 mi
4:00 AM81 °FFog.10 mph79%29.71 "Hg3 mi
3:30 AM81 °FFog.10 mph79%29.71 "Hg3 mi
3:00 AM81 °FFog.12 mph79%29.71 "Hg3 mi
2:30 AM81 °FFog.13 mph79%29.74 "Hg3 mi
2:00 AM81 °FFog.12 mph79%29.74 "Hg3 mi
1:30 AM81 °FFog.9 mph79%29.74 "Hg3 mi
1:00 AM81 °FFog.10 mph79%29.74 "Hg3 mi
12:30 AM81 °FFog.7 mph79%29.74 "Hg3 mi
12:00 AM79 °FFog.3 mph79%29.77 "Hg3 mi
11:30 PM
Sat, Aug 27
79 °FPartly cloudy.5 mph79%29.77 "Hg3 mi
11:00 PM79 °FPartly cloudy.10 mph79%29.77 "Hg3 mi
10:30 PM79 °FPartly cloudy.12 mph79%29.77 "Hg3 mi
10:00 PM81 °FPartly cloudy.12 mph74%29.77 "Hg4 mi
9:30 PM82 °FPartly cloudy.9 mph70%29.77 "Hg4 mi
9:00 PM82 °FPartly cloudy.7 mph70%29.77 "Hg4 mi
8:30 PM82 °FPartly cloudy.7 mph70%29.74 "Hg4 mi
8:00 PM84 °FPartly cloudy.7 mph70%29.71 "Hg4 mi
7:30 PM84 °FPartly cloudy.8 mph70%29.71 "Hg4 mi
7:00 PM86 °FPartly cloudy.7 mph66%29.71 "Hg4 mi
6:30 PM86 °FBroken clouds.7 mph70%29.68 "Hg4 mi
6:00 PM88 °FBroken clouds.8 mph66%29.68 "Hg5 mi
5:30 PM88 °FBroken clouds.7 mph66%29.65 "Hg5 mi
5:00 PM91 °FBroken clouds.9 mph52%29.65 "Hg5 mi
4:30 PM93 °FBroken clouds.10 mph49%29.65 "Hg5 mi
4:00 PM93 °FBroken clouds.13 mph49%29.65 "Hg5 mi
3:30 PM93 °FBroken clouds.13 mph49%29.65 "Hg5 mi
3:00 PM93 °FPartly sunny.13 mph49%29.65 "Hg5 mi
2:30 PM93 °FPartly sunny.12 mph49%29.68 "Hg5 mi
2:00 PM93 °FPartly sunny.10 mph49%29.68 "Hg5 mi
1:30 PM91 °FPartly sunny.12 mph52%29.68 "Hg5 mi
1:00 PM91 °FPartly sunny.12 mph52%29.71 "Hg5 mi
12:30 PM90 °FPartly sunny.8 mph55%29.71 "Hg4 mi
12:00 PM90 °FBroken clouds.9 mph55%29.74 "Hg4 mi
11:30 AM88 °FBroken clouds.12 mph59%29.74 "Hg4 mi
11:00 AM86 °FBroken clouds.12 mph62%29.74 "Hg4 mi
10:30 AM86 °FBroken clouds.12 mph62%29.77 "Hg4 mi
10:00 AM84 °FBroken clouds.12 mph66%29.77 "Hg4 mi
9:30 AM84 °FBroken clouds.12 mph66%29.77 "Hg4 mi
9:00 AM82 °FBroken clouds.12 mph70%29.77 "Hg4 mi
8:30 AM81 °FBroken clouds.13 mph74%29.74 "Hg4 mi
8:00 AM79 °FFog.9 mph84%29.74 "Hg3 mi
Weather by CustomWeather, © 2016

See weather overviewHow to use our weather pages